JCSAT-RA (JCSAT-12)

Last updated on Nov. 15, 2019, 4:20 a.m. UTC

1 35755U 09044A   19318.80467494 -.00000017  00000-0  00000+0 0  9994
2 35755   0.0315 256.3413 0002503 352.8290 263.0598  1.00273018 37532
UTC
Height (km)
Latitude
Longitude
Inclination
Orbital Period
UTC large
Height (km)
Speed (km/s)
/
Latitude / Longitude
Inclination (degrees)
Orbital Period (minutes)
Azimuth
Elevation
Range (km)
Doppler Factor
iOS Compass Heading
iOS Angle

Next 30 passes for location: Hong Kong

Rise time Rise Azimuth (degrees) Set time Set Azimuth (degrees) Duration Max altitude (degrees)

No matching passes for this satellites